Regional Weather Roundup
Issued by NWS

Home | Current Version | Previous Version | Text Only | Print | Product List | Glossary Off
Versions: 1 2 3 4 5 6 7 8 9 10 11 12 13 14 15 16 17 18 19 20 21 22 23 24 25 26 27 28 29 30 31 32 33 34 35 36 37 38 39 40 41 42 43 44 45 46 47 48 49 50

000
ASUS43 KLOT 250903
RWRIL

ILLINOIS REGIONAL WEATHER ROUNDUP
NATIONAL WEATHER SERVICE CHICAGO/ROMEOVILLE IL
400 AM CDT SAT MAR 25 2017

NOTE: "FAIR" INDICATES FEW OR NO CLOUDS BELOW 12,000 FEET WITH NO
SIGNIFICANT WEATHER AND/OR OBSTRUCTIONS TO VISIBILITY.

* THESE STATIONS ARE NOT UNDER NWS QUALITY CONTROL. THEY ALSO MAY NOT
  REPORT WEATHER SUCH AS PRECIPITATION OR FOG.

ILZ001-002-007-009-015-016-024-251000-
NORTHWEST ILLINOIS

CITY           SKY/WX    TMP DP  RH WIND       PRES   REMARKS
MOLINE         CLOUDY    44  40  85 NE18      29.95F
STERLING*      CLOUDY    41  39  93 NE10      30.02R
SAVANNA*       LGT RAIN  40  38  93 NE13      30.02F
$$

ILZ003-004-008-010-011-017-018-251000-
NORTH CENTRAL ILLINOIS

CITY           SKY/WX    TMP DP  RH WIND       PRES   REMARKS
ROCKFORD       LGT RAIN  40  37  89 NE7       30.06F
FREEPORT*      CLOUDY    38  37  96 NE13      30.06S WCI  30
ROCHELLE*      CLOUDY    40  38  96 NE15      30.02F
DE KALB*       CLOUDY    39  38  96 NE13      30.02F WCI  32
PERU*          DRIZZLE   42  39  88 NE12      29.99S
$$

ILZ005-006-012>014-019>023-251000-
NORTHEAST ILLINOIS

CITY           SKY/WX    TMP DP  RH WIND       PRES   REMARKS
CHICAGO-OHARE  CLOUDY    41  36  82 NE9       30.04F
CHICAGO-MIDWAY LGT RAIN  42  39  89 N13G22    30.03F
AURORA         CLOUDY    43  38  82 NE14      30.01F
LANSING*       LGT RAIN  39  39 100 NE7       30.04F WCI  34
JOLIET*        CLOUDY    42  40  94 NE9       30.01F
WAUKEGAN       LGT RAIN  37  36  96 NE12      30.05F WCI  29
DUPAGE AIRPORT CLOUDY    41  39  93 NE12      30.02F
WHEELING       CLOUDY    38  37  97 N14       30.05F WCI  30
MORRIS*        CLOUDY    41  39  92 NE8       29.99F
NORTHERLY ISL    N/A     38  37  97 N17         N/A  WCI  28
$$

LMZ740>746-251000-
SOUTHERN LAKE MICHIGAN

STATION/POSITION SKY/WX   TEMP    WIND        PRES    VSBY  WAVE
                          AIR SEA DIR/SP/G                  HT/PER
                          (F)     (DEG/KT/KT) (MB)    (MI)  (FT/S)
HARRISON CRIB                     360/ 14/ 16   N/A
BURNHAM HARBOR                    360/ 12/ 15   N/A
CALUMET HARBOR                    340/ 11/ 16 1017.0F
BURNS HARBOR               38     330/  5/  7 1017.9F
MICHIGAN CITY              38     280/  5/  6   N/A
$$

ILZ025>027-034>036-040-047-049-050-058-095>099-251000-
WEST-CENTRAL ILLINOIS

CITY           SKY/WX    TMP DP  RH WIND       PRES   REMARKS
QUINCY         LGT RAIN  57  57 100 E13       29.80F FOG
GALESBURG*     LGT RAIN  45  43  93 NE14G22   29.90
MACOMB*        LGT RAIN  55  54  97 NE18G24   29.88F
JACKSONVILLE*  LGT RAIN  59  57  94 SE10      29.85F
PITTSFIELD*    LGT RAIN  58  57  97 E8        29.83S
$$

ILZ028>032-037-038-041>044-048-051>054-059>061-251000-
CENTRAL ILLINOIS

CITY           SKY/WX    TMP DP  RH WIND       PRES   REMARKS
PONTIAC        CLOUDY    45  45  98 NE15      29.98S FOG
BLOOMINGTON    RAIN      47  47 100 NE12      29.95F FOG
DECATUR        CLOUDY    61  53  75 SE12      29.89F
PEORIA         RAIN      49  48  97 NE16      29.91F FOG
SPRINGFIELD    LGT RAIN  60  58  92 E8        29.88F FOG
TAYLORVILLE    NOT AVBL
$$

ILZ033-039-045-046-055>057-062-063-251000-
EAST-CENTRAL ILLINOIS

CITY           SKY/WX    TMP DP  RH WIND       PRES   REMARKS
CHAMPAIGN      CLOUDY    58  53  84 SE9       29.94S
RANTOUL*       CLOUDY    59  56  89 SE9       29.95R
MATTOON        MOCLDY    63  54  72 SE13      29.91F
PARIS*         MOCLDY    61  55  79 SE15      29.97F
$$

ILZ079-100>102-251000-
SOUTHWEST ILLINOIS

CITY           SKY/WX    TMP DP  RH WIND       PRES   REMARKS
BELLEVILLE     LGT RAIN  59  59 100 CALM      29.83R
CAHOKIA*       LGT RAIN  58  56  93 S6        29.84S
SPARTA*        HVY RAIN  59  57  92 W10       29.89R
$$

ILZ064>066-069>071-074>076-080>082-084>086-088>090-092>094-251000-
SOUTH-CENTRAL ILLINOIS

CITY           SKY/WX    TMP DP  RH WIND       PRES   REMARKS
CARBONDALE     LGT RAIN  59  57  93 SW20G32   29.90R
CAIRO*         LGT RAIN  56  54  94 W9G16     29.96R
EFFINGHAM*     CLOUDY    63  55  77 E12       29.92F
MARION         LGT RAIN  68  57  68 S21       29.88F
MT. VERNON     CLOUDY    65  55  70 SE12G18   29.87F
CENTRALIA*     MOCLDY    65  57  73 SE17      29.84F
SALEM*         CLOUDY    64  55  71 SE12      29.87F
$$

ILZ067-068-072-073-078-083-087-091-251000-
SOUTHEAST ILLINOIS

CITY           SKY/WX    TMP DP  RH WIND       PRES   REMARKS
LAWRENCEVILLE  CLOUDY    64  54  69 S20G25    29.96F
FLORA*         CLOUDY    64  55  73 SE14G20   29.91F
FAIRFIELD*     CLOUDY    63  55  76 SE9       29.89F
HARRISBURG*    PTCLDY    65  56  73 S17G25    29.91F
ROBINSON*      MOCLDY    63  54  72 S16       29.96F
CARMI*         PTCLDY    61  55  79 SE16      29.92F
$$

ABBREVIATIONS USED IN REMARKS
   TC - TEMPERATURE IN CELSIUS
  WCI - WIND CHILL INDEX
   HX - HEAT INDEX
  VSB - VISIBILITY
$$





USA.gov is the U.S. government's official web portal to all federal, state and local government web resources and services.